RH
30 25 33 51 48 56 68 76 84 100 100 65 82 72 71 74 56 93 100 100 88 96 86 100 76 71 99 100 95 79 68 43 59 100 100 100 100 100 100 100 95 100 98 93
37 38 46 58 76 86 99 100 100 100 100 100 91 47 44 96 76 74 100 89 49 63 88 100 98 92 100 100 100 100 99 85 77 39 42 41 47 59 76 76 84 79 70 94
46 46 60 54 77 94 100 64 60 72 93 99 94 69 62 100 100 80 77 71 62 78 74 83 82 100 100 100 100 100 100 95 72 100 89 70 81 100 100 100 100 100 100 100
89 97 82 80 100 92 100 73 41 50 57 77 100 78 72 84 90 92 70 52 61 71 71 100 100 100 100 100 100 100 89 100 90 61 76 92 100 100 100 100 93 91 79 71
100 100 100 100 100 100 96 97 97 97 92 87 95 100 100 91 90 100 99 99 92 100 100 100 100 100 100 100 84 69 92 93 93 84 70 60 62 66 67 61 52 44 47 44
100 100 91 100 100 100 100 84 97 98 95 100 100 100 100 100 100 100 100 100 100 98 72 71 67 76 91 95 79 69 58 66 92 100 98 97 77 59 54 59 56 50 46 39
90 100 94 76 75 82 92 75 80 83 91 90 100 100 96 100 100 100 100 100 100 100 100 96 67 52 56 58 66 69 50 65 67 67 66 56 56 69 64 60 53 48 41 38
98 96 100 94 80 72 87 89 98 100 100 100 100 100 100 100 100 100 100 91 83 68 77 60 60 49 55 59 48 46 52 55 54 50 53 50 50 51 52 51 46 46 47 45
100 100 100 82 90 96 100 100 100 100 100 100 100 100 100 100 100 100 91 77 66 64 62 53 51 43 41 50 58 58 53 49 49 46 46 44 42 43 47 49 51 49 41 40
99 94 100 100 100 100 100 100 100 100 100 100 100 100 100 100 100 100 100 95 73 54 45 36 38 36 42 48 48 55 54 53 50 45 40 38 38 40 42 42 44 41 38 40
68 58 68 78 82 100 100 87 100 100 100 100 100 90 96 88 81 63 79 55 43 33 39 65 70 53 49 48 33 28 28 32 34 34 32 29 27 27 29 30 27 24 27 31
62 62 63 64 65 53 47 70 71 71 68 75 58 59 72 63 58 63 52 36 39 42 54 46 40 40 36 31 22 20 20 19 20 21 23 24 23 23 25 26 27 28 32 49
66 56 57 58 64 68 67 75 71 80 82 70 62 52 42 39 40 33 34 48 44 39 32 24 23 26 24 24 24 26 26 28 30 30 31 36 42 50 59 65 65 77 88 92
58 69 75 67 73 75 84 80 86 92 76 69 40 29 33 37 41 35 47 36 32 24 17 18 26 27 30 31 30 34 36 41 49 68 73 82 92 98 99 100 100 100 100 100
75 73 79 72 79 80 83 89 90 59 41 26 30 30 41 38 22 37 27 22 22 27 29 28 28 29 35 36 41 57 84 88 97 98 100 100 98 92 95 99 99 95 99 98
74 48 60 72 66 65 48 52 45 25 23 21 24 44 35 31 28 24 22 28 28 30 30 29 37 45 51 71 88 94 96 100 100 97 91 90 89 86 78 76 81 81 78 79
47 68 53 53 47 37 39 39 22 23 28 35 45 32 33 23 22 34 35 31 29 35 39 53 62 87 93 99 100 100 99 87 83 82 83 75 67 60 56 53 51 47 44 42
49 40 39 37 31 28 33 26 26 33 52 36 44 32 24 27 40 39 33 47 52 59 77 93 99 99 100 100 99 96 92 86 87 85 70 59 54 52 52 52 45 38 36 36
33 33 31 30 24 28 49 28 43 53 46 44 28 28 31 38 45 64 72 91 94 99 100 95 99 100 100 100 94 82 86 68 63 59 60 59 58 54 51 53 43 30 23 21
32 31 29 24 24 47 44 57 38 37 39 26 34 40 37 54 85 93 100 100 93 87 98 100 100 99 82 81 100 86 73 68 60 62 58 63 62 58 54 49 45 27 22 18
35 26 32 29 37 59 55 61 31 36 38 36 41 54 60 88 93 100 100 100 100 100 100 96 77 76 99 100 87 75 72 64 65 61 65 64 65 62 61 55 45 34 23 19
43 36 39 46 58 64 48 39 39 48 40 45 63 74 95 100 100 100 100 100 100 85 94 79 77 100 100 97 87 78 72 69 69 67 72 70 69 69 66 61 58 44 27 24
55 45 61 60 67 51 35 42 64 60 43 57 83 96 98 100 100 100 100 97 88 93 93 89 86 76 93 95 72 72 71 78 74 77 78 77 72 70 70 69 65 59 48 34
58 62 63 66 61 53 43 68 71 54 50 68 100 100 100 100 100 100 100 100 100 100 100 95 82 87 90 79 72 74 79 78 76 77 80 81 80 79 79 79 76 70 59 44
63 72 78 69 51 63 58 59 57 48 65 80 100 100 100 100 100 96 100 100 95 97 100 94 84 92 90 78 75 78 84 91 94 91 88 89 86 87 88 80 80 79 71 59
63 78 91 82 57 61 69 62 52 47 70 93 100 100 100 100 100 100 78 76 91 100 99 92 100 94 81 77 82 93 90 92 88 85 84 85 90 87 87 88 78 77 77 68
Wind_Speed
63 55 63 66 61 62 63 66 69 69 70 68 69 75 75 78 76 76 75 78 77 74 71 78 84 80 77 76 69 64 67 70 76 80 81 80 82 82 83 82 80 80 79 80
65 67 71 72 71 73 70 67 71 72 77 88 92 82 84 87 82 83 85 80 76 79 77 76 82 82 82 78 71 70 74 82 83 79 84 87 86 86 86 85 85 85 86 86
70 71 71 69 70 77 77 86 81 82 84 91 98 90 85 87 88 94 93 91 85 81 78 79 80 80 84 81 78 80 87 97 91 89 88 87 87 89 90 90 91 92 92 92
66 77 85 82 77 84 84 90 92 94 95 98 97 95 83 88 95 98 98 96 85 78 78 77 80 80 79 81 85 97 105 103 101 94 96 100 99 98 98 99 101 102 102 101
84 83 80 87 92 90 90 98 101 102 102 101 97 107 86 93 95 99 95 88 80 77 78 80 83 84 89 99 112 109 106 101 99 96 95 97 99 102 104 105 105 108 106 106
90 94 92 92 98 102 106 107 106 108 109 103 98 105 91 90 95 93 84 84 92 104 110 113 111 107 110 110 115 114 107 104 104 102 104 104 103 101 101 102 104 104 104 104
96 97 101 103 105 111 115 118 118 116 112 106 101 103 105 99 96 98 98 100 104 108 112 118 122 123 123 117 108 107 102 100 99 101 100 100 99 99 100 100 101 100 98 98
105 107 112 116 116 119 117 115 114 114 107 104 100 105 106 108 107 107 107 114 115 116 119 119 121 120 104 100 100 93 92 93 94 93 91 90 90 91 93 93 91 90 88 86
115 113 119 121 118 117 114 114 121 121 117 116 108 109 111 111 113 113 114 117 120 117 115 112 107 98 90 85 83 85 84 83 83 84 83 83 83 82 81 80 79 79 77 72
121 120 121 117 114 110 109 109 109 111 115 114 109 109 113 111 110 112 117 117 116 104 98 90 85 81 77 75 73 75 75 76 75 76 76 75 73 70 69 68 68 67 65 63
128 124 118 119 117 119 125 121 125 127 125 123 117 118 119 119 116 113 107 101 91 81 77 78 79 76 72 70 67 66 64 65 64 63 63 62 61 61 61 61 59 56 54 52
126 121 112 110 104 109 108 98 105 110 105 110 111 99 102 101 99 100 91 80 74 70 72 71 70 67 65 61 56 50 48 47 46 46 44 44 44 44 44 43 42 41 40 37
108 98 87 81 87 93 87 83 84 87 87 85 90 87 89 88 83 78 68 68 68 67 65 60 56 54 49 46 40 36 34 33 33 32 32 31 31 30 30 29 28 26 30 29
86 88 88 82 84 87 89 87 85 85 84 84 80 77 76 73 69 65 61 60 60 59 56 46 44 40 34 32 29 28 26 26 24 22 21 21 21 22 25 26 28 29 31 36
86 80 78 77 75 76 74 76 78 79 77 73 64 64 64 65 60 55 53 49 47 46 42 34 31 27 24 23 22 17 13 14 15 17 20 22 26 28 30 31 34 38 40 44
79 72 69 66 71 69 65 67 70 68 64 62 52 49 58 54 50 45 42 36 34 32 31 25 22 18 16 11 7 10 12 15 20 24 27 30 34 37 40 43 46 49 51 54
67 66 66 60 68 62 57 66 59 57 57 49 49 49 50 45 38 31 31 28 26 23 19 13 10 3 3 6 10 14 18 22 26 30 35 39 43 46 48 52 54 55 56 56
60 63 60 56 57 53 57 58 51 48 48 42 43 43 39 31 25 24 19 15 13 9 6 5 2 2 6 11 15 20 24 28 32 37 41 45 48 48 48 50 53 53 53 54
55 57 53 50 50 47 53 46 42 39 40 39 37 33 24 23 15 12 9 6 7 5 3 0 4 7 13 18 23 26 28 31 36 41 43 46 47 47 44 43 48 49 47 48
50 50 47 46 42 43 48 38 37 31 36 31 25 22 17 13 10 11 11 4 3 3 3 5 10 14 19 22 27 30 35 38 42 43 45 46 46 47 46 42 41 43 43 44
45 46 42 41 35 38 38 34 33 25 30 22 18 19 13 12 13 13 9 8 8 7 9 13 16 18 20 26 33 36 40 43 44 44 45 46 47 46 45 44 41 38 38 38
41 42 40 35 32 34 33 30 27 24 22 16 17 15 15 17 15 13 12 12 14 14 16 18 16 20 25 32 36 40 43 44 45 46 45 45 45 44 46 43 42 40 36 34
40 37 34 32 31 33 27 24 21 22 19 16 16 16 19 18 16 13 14 17 18 18 20 22 21 25 30 35 40 41 43 44 46 46 46 48 47 47 47 47 45 41 40 37
35 32 31 28 29 29 22 21 20 22 18 18 20 20 21 18 18 18 16 16 18 20 24 26 27 30 35 39 41 39 42 46 48 49 50 51 52 50 49 49 49 46 43 40
29 27 28 29 28 23 24 18 24 21 21 22 24 23 22 19 19 21 18 18 22 22 26 29 31 34 38 40 38 40 44 46 48 50 51 52 53 51 52 52 50 49 47 45
24 26 26 26 23 21 22 20 24 21 22 23 24 26 23 20 20 21 21 21 22 24 28 30 34 37 38 36 38 41 43 47 49 53 53 53 53 54 53 53 53 52 49 48
Wind_Direction
274 277 280 275 279 280 280 279 279 280 289 292 290 298 295 293 293 285 283 286 289 291 294 294 292 290 288 289 288 288 288 293 276 272 271 272 273 275 273 274 275 275 276 276
275 277 277 278 282 282 288 288 288 284 288 293 294 297 303 294 293 288 283 282 289 290 290 286 283 284 284 283 282 281 285 292 288 281 276 275 275 275 274 275 276 276 276 275
270 273 277 281 283 284 284 288 289 287 291 291 291 296 298 291 290 294 289 289 292 290 288 282 279 280 280 280 279 283 286 289 287 280 278 276 275 274 273 272 272 272 273 275
275 276 274 275 277 283 281 285 286 287 288 292 287 293 293 288 287 291 291 293 293 291 287 280 279 279 278 277 280 286 288 285 284 280 275 272 271 270 270 271 272 273 273 275
273 279 278 276 276 278 283 282 283 286 288 291 292 289 290 290 292 292 293 292 290 287 284 280 278 276 275 278 284 286 287 283 280 277 278 277 275 273 273 274 275 274 274 275
273 275 278 276 281 284 286 287 286 287 289 290 289 290 289 289 290 289 285 280 281 284 283 283 284 282 283 283 284 284 285 282 279 276 276 276 277 275 274 274 275 275 275 276
273 277 276 278 282 283 284 285 285 285 285 286 284 284 286 283 284 284 282 284 285 284 282 284 284 286 285 285 284 282 282 279 278 278 276 275 275 274 274 275 275 276 277 277
275 279 278 280 283 285 284 283 283 281 283 283 283 285 286 285 284 283 280 281 284 286 284 287 287 287 286 286 285 282 281 280 279 277 276 276 275 275 276 276 276 277 278 278
277 281 280 282 284 284 282 279 279 281 280 281 282 281 281 283 285 284 285 286 289 290 289 288 287 286 286 284 283 282 281 280 278 277 275 276 276 276 277 277 278 278 278 278
281 279 279 277 279 276 275 276 278 281 281 284 284 282 283 283 283 283 284 285 288 289 290 289 288 286 285 284 283 281 280 279 279 278 278 279 280 279 278 277 277 276 276 277
281 279 279 280 278 271 275 275 273 275 277 281 280 280 281 282 284 283 285 286 290 289 288 288 287 288 288 287 286 283 282 279 279 281 281 281 281 280 279 277 276 276 276 274
283 280 278 279 279 277 275 280 278 277 278 276 277 281 282 283 285 284 288 291 287 283 281 283 284 287 288 287 287 287 283 282 283 282 281 281 282 281 280 279 278 277 275 270
281 281 279 276 276 278 280 282 280 280 281 281 282 284 284 283 283 285 289 288 286 284 285 285 288 288 288 288 287 286 287 288 287 287 286 287 288 288 288 287 284 276 272 272
279 281 280 277 277 276 279 278 279 279 280 280 285 285 286 285 284 288 288 284 282 283 287 291 287 285 285 286 287 289 290 291 293 297 301 301 296 293 290 283 275 276 275 273
281 280 280 280 278 276 277 278 277 279 280 283 281 286 283 282 289 290 288 284 285 286 287 282 281 283 289 288 290 293 302 306 302 302 301 298 293 289 284 280 275 275 274 272
280 277 277 278 277 275 279 277 275 282 283 284 289 282 280 287 289 286 287 286 281 278 277 280 285 288 284 283 288 300 307 307 306 304 302 300 296 292 289 286 282 279 277 276
276 276 275 274 274 276 275 270 280 279 282 285 284 284 284 286 288 285 278 278 275 278 277 275 270 254 275 320 314 312 307 303 303 303 301 300 298 296 294 291 287 284 281 279
273 273 273 270 272 274 272 276 278 280 281 285 284 282 285 286 279 275 272 275 275 260 207 142 129 318 321 306 298 300 304 305 304 303 303 303 303 302 301 296 291 288 285 281
269 268 268 269 272 274 272 275 279 278 280 276 276 278 279 270 258 252 238 179 153 113 109 227 323 307 298 304 306 306 304 303 307 310 309 308 309 311 309 303 298 296 292 289
263 264 267 269 271 271 271 278 274 279 270 271 271 267 253 244 217 187 153 168 196 230 280 296 286 298 303 305 308 306 308 310 313 313 315 314 314 314 315 312 306 300 296 294
261 264 265 272 273 273 273 273 270 262 261 264 257 251 252 215 186 176 187 225 255 274 282 288 297 301 308 309 308 311 313 314 315 317 318 318 317 315 316 317 314 307 301 300
258 264 270 275 273 270 267 272 267 257 253 248 235 237 215 192 184 196 208 238 262 274 286 296 304 309 310 307 310 315 314 316 317 319 320 321 322 320 320 319 318 316 308 305
258 263 269 269 267 264 268 259 258 253 249 231 225 218 191 194 205 216 230 268 275 288 293 298 301 304 307 307 314 315 316 318 318 320 321 322 323 323 322 322 320 318 316 312
259 266 264 265 263 264 257 247 241 244 242 220 209 196 200 209 229 240 250 263 276 286 293 297 302 305 310 314 315 317 317 318 320 321 320 319 320 322 321 323 321 318 315 313
258 260 261 257 254 249 255 244 245 237 223 217 200 199 208 209 226 237 246 263 276 285 290 296 303 308 312 314 315 317 320 323 324 323 320 318 317 318 318 317 319 318 315 314
250 253 254 257 251 243 251 245 244 235 218 215 201 205 211 220 238 252 260 271 278 284 289 298 302 307 311 312 315 318 319 320 322 325 324 321 316 314 313 314 315 316 313 311